Powrót do katalogu

STARLINK-35680

AktywnyŁącznośćVLEO
NORAD 66610·PAYLOAD·🇺🇸 United States

Wystrzelony Nov 22, 2025 z Cape Canaveral Space Force Station

Loading…

Następne Przeloty (najbliższe 24 godziny)

TLE

ŚwieżeSource: CelesTrak SupGP

Epoka: Sep 14, 2026, 22:45 UTC

1 66610C 25270Y   26257.94840278  .00058272  00000+0  21105-2 0  2570
2 66610  43.0006  67.3538 0001460 271.5493 332.8158 15.27550578    14

Śledź STARLINK-35680 w czasie rzeczywistym z AllMySat

Download on the App Store